Total_Precipitation_Accumulation
0.26 0.57 0.78 0.69 0.64 0.67 0.63 0.57 0.54 0.47 0.48 0.49 0.44 0.37 0.38 0.35 0.33 0.28 0.25 0.26 0.23 0.20 0.25 0.25 0.19 0.21 0.28 0.39 0.50 0.68 1.03 1.45 1.62 1.51 1.45 1.53 1.64 1.64 1.55 1.52 1.49 1.55 1.55 1.55
0.29 0.38 0.31 0.33 0.41 0.52 0.59 0.61 0.58 0.49 0.38 0.37 0.36 0.31 0.30 0.29 0.30 0.26 0.23 0.24 0.23 0.21 0.20 0.18 0.14 0.16 0.23 0.41 0.55 0.68 0.98 1.42 1.60 1.70 1.82 2.04 2.23 2.13 2.00 1.98 1.93 2.00 2.02 2.19
0.24 0.23 0.19 0.29 0.44 0.54 0.58 0.58 0.54 0.47 0.36 0.31 0.28 0.27 0.24 0.25 0.25 0.23 0.23 0.24 0.22 0.19 0.18 0.18 0.15 0.18 0.23 0.34 0.46 0.61 0.80 1.08 1.42 1.69 1.96 2.24 2.48 2.48 2.37 2.20 2.17 2.23 2.29 2.45
0.25 0.23 0.22 0.28 0.35 0.42 0.53 0.40 0.36 0.34 0.40 0.39 0.30 0.39 0.27 0.26 0.26 0.26 0.26 0.24 0.22 0.21 0.21 0.23 0.20 0.21 0.24 0.30 0.38 0.50 0.68 0.92 1.17 1.42 1.83 2.28 2.60 2.71 2.63 2.52 2.47 2.43 2.45 2.51
0.20 0.20 0.22 0.24 0.26 0.31 0.38 0.32 0.32 0.33 0.37 0.32 0.24 0.30 0.28 0.25 0.27 0.28 0.27 0.25 0.23 0.21 0.24 0.27 0.27 0.28 0.31 0.31 0.36 0.46 0.59 0.82 1.07 1.29 1.65 2.08 2.38 2.62 2.78 2.61 2.48 2.50 2.53 2.56
0.19 0.16 0.17 0.21 0.23 0.24 0.31 0.30 0.29 0.28 0.33 0.35 0.19 0.28 0.37 0.27 0.24 0.25 0.22 0.21 0.22 0.24 0.29 0.34 0.42 0.46 0.47 0.40 0.42 0.50 0.58 0.73 0.88 1.02 1.25 1.50 1.85 2.15 2.51 2.50 2.43 2.55 2.54 2.47
0.19 0.16 0.16 0.17 0.22 0.23 0.27 0.36 0.44 0.43 0.44 0.31 0.16 0.28 0.41 0.31 0.24 0.24 0.23 0.23 0.24 0.27 0.32 0.40 0.54 0.59 0.61 0.53 0.46 0.47 0.57 0.64 0.70 0.80 0.93 1.10 1.37 1.56 1.95 2.26 2.25 2.17 2.23 2.29
0.20 0.21 0.14 0.14 0.17 0.21 0.22 0.35 0.51 0.54 0.49 0.35 0.28 0.45 0.50 0.37 0.28 0.26 0.24 0.26 0.30 0.34 0.40 0.57 0.72 0.73 0.74 0.65 0.55 0.53 0.62 0.66 0.68 0.72 0.75 0.86 1.02 1.15 1.32 1.55 1.67 1.71 1.78 2.01
0.20 0.17 0.13 0.13 0.12 0.14 0.19 0.23 0.26 0.38 0.37 0.39 0.43 0.54 0.49 0.32 0.30 0.31 0.32 0.35 0.45 0.53 0.59 0.72 0.86 0.87 0.79 0.72 0.64 0.61 0.65 0.74 0.75 0.74 0.76 0.87 0.92 0.95 1.07 1.11 1.26 1.45 1.50 1.56
0.23 0.18 0.11 0.12 0.12 0.11 0.13 0.18 0.29 0.43 0.52 0.52 0.47 0.53 0.52 0.41 0.41 0.39 0.44 0.50 0.61 0.70 0.76 0.85 1.00 1.01 0.86 0.74 0.64 0.61 0.64 0.76 0.94 1.05 1.01 0.96 1.03 1.10 1.32 1.35 1.20 1.19 1.38 1.46
0.33 0.27 0.14 0.12 0.13 0.15 0.18 0.27 0.37 0.49 0.51 0.66 0.74 0.71 0.61 0.59 0.59 0.61 0.64 0.70 0.77 0.89 0.89 0.86 0.94 1.02 0.91 0.72 0.63 0.58 0.59 0.70 0.84 0.88 0.94 0.93 0.98 1.08 1.36 1.58 1.52 1.34 1.36 1.40
0.33 0.42 0.26 0.16 0.19 0.21 0.27 0.38 0.56 0.80 0.75 0.69 0.83 0.84 0.67 0.60 0.64 0.66 0.65 0.64 0.69 0.80 0.82 0.83 0.86 0.83 0.74 0.59 0.50 0.48 0.49 0.60 0.71 0.71 0.77 0.85 0.86 0.96 1.08 1.20 1.22 1.16 1.09 1.07
0.42 0.57 0.51 0.38 0.41 0.37 0.45 0.48 0.54 0.69 0.78 0.79 0.87 0.88 0.64 0.55 0.50 0.53 0.56 0.59 0.61 0.62 0.62 0.62 0.62 0.59 0.58 0.55 0.51 0.46 0.47 0.54 0.61 0.64 0.70 0.77 0.80 0.83 0.85 0.86 0.79 0.83 0.86 0.93
0.40 0.49 0.57 0.59 0.62 0.63 0.61 0.52 0.47 0.64 0.85 0.79 0.78 0.75 0.62 0.55 0.51 0.53 0.54 0.55 0.59 0.53 0.46 0.46 0.47 0.48 0.50 0.50 0.50 0.46 0.44 0.51 0.60 0.75 0.82 0.87 0.88 0.88 0.88 0.86 0.82 0.81 0.84 0.90
0.27 0.31 0.30 0.29 0.30 0.41 0.46 0.40 0.39 0.47 0.54 0.69 0.68 0.66 0.54 0.50 0.55 0.58 0.54 0.50 0.47 0.42 0.36 0.36 0.36 0.39 0.38 0.39 0.40 0.40 0.39 0.45 0.52 0.66 0.78 0.83 0.87 0.88 0.85 0.79 0.77 0.81 0.78 0.77
0.18 0.23 0.21 0.19 0.20 0.28 0.35 0.36 0.37 0.37 0.41 0.51 0.58 0.57 0.44 0.40 0.39 0.40 0.37 0.32 0.31 0.32 0.28 0.25 0.25 0.27 0.27 0.25 0.25 0.26 0.33 0.42 0.48 0.56 0.66 0.81 0.88 0.81 0.77 0.70 0.69 0.73 0.71 0.68
0.16 0.26 0.35 0.29 0.24 0.26 0.51 0.52 0.52 0.53 0.47 0.46 0.41 0.33 0.21 0.21 0.23 0.27 0.26 0.27 0.31 0.28 0.22 0.20 0.20 0.21 0.22 0.23 0.26 0.29 0.35 0.44 0.45 0.49 0.61 0.81 0.82 0.71 0.66 0.72 0.76 0.73 0.71 0.72
0.15 0.27 0.37 0.31 0.34 0.62 0.84 0.62 0.59 0.54 0.33 0.19 0.14 0.13 0.12 0.17 0.17 0.16 0.16 0.19 0.23 0.21 0.17 0.14 0.14 0.13 0.14 0.17 0.22 0.24 0.28 0.32 0.36 0.41 0.51 0.66 0.69 0.67 0.70 0.71 0.69 0.65 0.60 0.59
0.17 0.28 0.38 0.34 0.39 0.63 0.65 0.42 0.34 0.34 0.23 0.08 0.07 0.08 0.10 0.13 0.12 0.09 0.09 0.11 0.12 0.12 0.08 0.07 0.07 0.06 0.06 0.06 0.08 0.11 0.13 0.17 0.21 0.28 0.37 0.47 0.51 0.56 0.58 0.57 0.57 0.53 0.50 0.52
0.29 0.35 0.48 0.48 0.60 0.62 0.33 0.17 0.16 0.23 0.27 0.08 0.04 0.04 0.04 0.06 0.10 0.07 0.04 0.05 0.06 0.06 0.05 0.03 0.02 0.02 0.01 0.01 0.02 0.04 0.07 0.10 0.14 0.21 0.28 0.35 0.38 0.42 0.44 0.49 0.52 0.52 0.49 0.47
0.27 0.34 0.42 0.50 0.69 0.56 0.22 0.11 0.12 0.22 0.28 0.09 0.03 0.02 0.02 0.02 0.04 0.03 0.03 0.04 0.04 0.04 0.03 0.02 0.01 0.01 0.01 0.01 0.01 0.02 0.06 0.08 0.09 0.12 0.17 0.23 0.31 0.38 0.46 0.52 0.53 0.56 0.53 0.49
0.31 0.32 0.34 0.43 0.57 0.52 0.21 0.15 0.19 0.19 0.08 0.04 0.02 0.02 0.01 0.01 0.01 0.01 0.02 0.02 0.03 0.03 0.02 0.02 0.01 0.01 0.01 0.01 0.01 0.01 0.02 0.04 0.05 0.07 0.12 0.19 0.27 0.34 0.42 0.52 0.55 0.55 0.55 0.54
0.32 0.34 0.37 0.46 0.59 0.39 0.23 0.21 0.19 0.13 0.06 0.03 0.02 0.01 0.01 0.01 0.00 0.01 0.01 0.02 0.03 0.03 0.02 0.01 0.01 0.01 0.01 0.01 0.01 0.00 0.00 0.00 0.01 0.03 0.07 0.12 0.16 0.20 0.25 0.34 0.42 0.48 0.53 0.54
0.18 0.20 0.25 0.34 0.33 0.20 0.18 0.17 0.12 0.07 0.04 0.02 0.01 0.01 0.01 0.01 0.00 0.00 0.01 0.01 0.02 0.02 0.02 0.02 0.01 0.01 0.01 0.01 0.01 0.01 0.00 0.00 0.01 0.02 0.04 0.06 0.07 0.08 0.11 0.20 0.29 0.36 0.44 0.50
0.14 0.15 0.20 0.26 0.27 0.16 0.11 0.11 0.07 0.05 0.02 0.01 0.01 0.01 0.01 0.01 0.01 0.00 0.00 0.01 0.01 0.01 0.01 0.01 0.01 0.01 0.01 0.01 0.01 0.01 0.01 0.01 0.01 0.02 0.02 0.03 0.05 0.07 0.09 0.15 0.23 0.28 0.36 0.39
0.09 0.13 0.20 0.27 0.24 0.19 0.09 0.07 0.05 0.03 0.02 0.02 0.01 0.01 0.01 0.01 0.01 0.01 0.01 0.01 0.01 0.01 0.01 0.01 0.01 0.01 0.01 0.01 0.01 0.02 0.03 0.02 0.05 0.07 0.03 0.03 0.05 0.07 0.09 0.12 0.14 0.14 0.17 0.18